Time,TemperatureF,DewpointF,PressureIn,WindDirection,WindDirectionDegrees,WindSpeedMPH,WindSpeedGustMPH,Humidity,HourlyPrecipIn,Conditions,Clouds,dailyrainin,SoftwareType,DateUTC
2013-10-14 00:00:00,50.0,-99.9,-100.00,South,185,11.0,16.0,-999,-99.99,,,-99.99,,2013-10-14 06:00:00,
2013-10-14 00:52:00,50.0,-99.9,-100.00,South,185,11.0,16.0,-999,-99.99,,,-99.99,,2013-10-14 06:52:00,
2013-10-14 01:00:00,50.0,-99.9,-100.00,South,185,12.0,27.0,-999,-99.99,,,-99.99,,2013-10-14 07:00:00,
2013-10-14 01:52:00,50.0,-99.9,-100.00,South,185,12.0,27.0,-999,-99.99,,,-99.99,,2013-10-14 07:52:00,
2013-10-14 02:00:00,50.0,-99.9,-100.00,South,185,14.0,22.0,-999,-99.99,,,-99.99,,2013-10-14 08:00:00,
2013-10-14 02:52:00,50.0,-99.9,-100.00,South,185,14.0,22.0,-999,-99.99,,,-99.99,,2013-10-14 08:52:00,
2013-10-14 03:00:00,50.0,-99.9,-100.00,South,185,7.0,17.0,-999,-99.99,,,-99.99,,2013-10-14 09:00:00,
2013-10-14 03:53:00,50.0,-99.9,-100.00,South,185,7.0,17.0,-999,-99.99,,,-99.99,,2013-10-14 09:53:00,
2013-10-14 04:00:00,50.0,-99.9,-100.00,South,185,7.0,22.0,-999,-99.99,,,-99.99,,2013-10-14 10:00:00,
2013-10-14 04:53:00,50.0,-99.9,-100.00,South,185,7.0,22.0,-999,-99.99,,,-99.99,,2013-10-14 10:53:00,
2013-10-14 05:00:00,50.0,-99.9,-100.00,South,185,11.0,19.0,-999,-99.99,,,-99.99,,2013-10-14 11:00:00,
2013-10-14 05:52:00,50.0,-99.9,-100.00,South,185,11.0,19.0,-999,-99.99,,,-99.99,,2013-10-14 11:52:00,
2013-10-14 06:00:00,51.0,-99.9,-100.00,South,185,5.0,12.0,-999,-99.99,,,-99.99,,2013-10-14 12:00:00,
2013-10-14 06:52:00,51.0,-99.9,-100.00,South,185,5.0,12.0,-999,-99.99,,,-99.99,,2013-10-14 12:52:00,
2013-10-14 07:00:00,51.0,-99.9,-100.00,South,185,15.0,19.0,-999,-99.99,,,-99.99,,2013-10-14 13:00:00,
2013-10-14 07:52:00,51.0,-99.9,-100.00,South,185,15.0,19.0,-999,-99.99,,,-99.99,,2013-10-14 13:52:00,
2013-10-14 08:00:00,51.0,-99.9,-100.00,South,185,6.0,14.0,-999,-99.99,,,-99.99,,2013-10-14 14:00:00,
2013-10-14 08:52:00,51.0,-99.9,-100.00,South,185,6.0,14.0,-999,-99.99,,,-99.99,,2013-10-14 14:52:00,
2013-10-14 09:00:00,51.0,-99.9,-100.00,South,185,2.0,11.0,-999,-99.99,,,-99.99,,2013-10-14 15:00:00,
2013-10-14 09:54:00,51.0,-99.9,-100.00,South,185,2.0,11.0,-999,-99.99,,,-99.99,,2013-10-14 15:54:00,
2013-10-14 10:00:00,55.0,-99.9,-100.00,South,185,3.0,17.0,-999,-99.99,,,-99.99,,2013-10-14 16:00:00,
2013-10-14 10:53:00,55.0,-99.9,-100.00,South,185,3.0,17.0,-999,-99.99,,,-99.99,,2013-10-14 16:53:00,
2013-10-14 11:00:00,55.0,-99.9,-100.00,South,185,4.0,14.0,-999,-99.99,,,-99.99,,2013-10-14 17:00:00,
2013-10-14 11:52:00,55.0,-99.9,-100.00,South,185,4.0,14.0,-999,-99.99,,,-99.99,,2013-10-14 17:52:00,